| time (UTC) | temp C | wind direction | speed KPH | gust KPH | rain 1hr cm | rain 24hr cm | rain mn cm | humidity % | barometer mb |
| 20260507192029 | 16 | 307 | 1.6 | 1.6 | 0.00 | 0.00 | 0.03 | 35 | 1013.8 |
| 20260507191029 | 17 | 333 | 3.2 | 3.2 | 0.00 | 0.00 | 0.03 | 37 | 1014.1 |
| 20260507190028 | 16 | 302 | 3.2 | 6.4 | 0.00 | 0.00 | 0.03 | 37 | 1014.2 |
| 20260507185028 | 16 | 297 | 16.1 | 17.7 | 0.00 | 0.00 | 0.03 | 35 | 1014.5 |
| 20260507184029 | 16 | 333 | 6.4 | 6.4 | 0.00 | 0.00 | 0.03 | 33 | 1014.6 |
| 20260507183029 | 16 | 269 | 6.4 | 9.7 | 0.00 | 0.00 | 0.03 | 33 | 1014.5 |
| 20260507182030 | 16 | 315 | 3.2 | 3.2 | 0.00 | 0.00 | 0.03 | 37 | 1014.4 |
| 20260507181030 | 16 | 315 | 1.6 | 3.2 | 0.00 | 0.00 | 0.03 | 33 | 1014.8 |
| 20260507180030 | 16 | 299 | 4.8 | 4.8 | 0.00 | 0.00 | 0.03 | 35 | 1014.7 |
| 20260507175028 | 16 | 332 | 3.2 | 4.8 | 0.00 | 0.00 | 0.03 | 35 | 1014.7 |
| 20260507174029 | 16 | 325 | 3.2 | 6.4 | 0.00 | 0.00 | 0.03 | 37 | 1014.6 |
| 20260507173028 | 16 | 284 | 6.4 | 6.4 | 0.00 | 0.00 | 0.03 | 34 | 1014.4 |
| 20260507172028 | 16 | 306 | 1.6 | 3.2 | 0.00 | 0.00 | 0.03 | 34 | 1014.7 |
| 20260507171030 | 16 | 312 | 3.2 | 4.8 | 0.00 | 0.00 | 0.03 | 36 | 1014.6 |
| 20260507170029 | 15 | 291 | 9.7 | 16.1 | 0.00 | 0.00 | 0.03 | 36 | 1014.8 |
| 20260507165027 | 16 | 337 | 3.2 | 4.8 | 0.00 | 0.00 | 0.03 | 38 | 1015.1 |
| 20260507164028 | 15 | 298 | 6.4 | 6.4 | 0.00 | 0.00 | 0.03 | 42 | 1015.3 |
| 20260507163028 | 15 | 296 | 6.4 | 9.7 | 0.00 | 0.00 | 0.03 | 41 | 1015.3 |
| 20260507162028 | 15 | 316 | 3.2 | 4.8 | 0.00 | 0.00 | 0.03 | 46 | 1015.5 |
| 20260507161029 | 15 | 311 | 6.4 | 9.7 | 0.00 | 0.00 | 0.03 | 47 | 1015.6 |
| 20260507160030 | 15 | 258 | 1.6 | 3.2 | 0.00 | 0.00 | 0.03 | 43 | 1015.7 |
| 20260507155026 | 15 | 281 | 6.4 | 9.7 | 0.00 | 0.00 | 0.03 | 52 | 1015.7 |
| 20260507154029 | 14 | 323 | 6.4 | 9.7 | 0.00 | 0.00 | 0.03 | 54 | 1015.6 |
| 20260507153030 | 16 | 311 | 3.2 | 4.8 | 0.00 | 0.00 | 0.03 | 49 | 1015.4 |
| 20260507152029 | 14 | 272 | 4.8 | 4.8 | 0.00 | 0.00 | 0.03 | 55 | 1015.8 |
| 20260507151028 | 14 | 276 | 4.8 | 4.8 | 0.00 | 0.00 | 0.03 | 56 | 1015.7 |
| 20260507150030 | 15 | 283 | 6.4 | 6.4 | 0.00 | 0.00 | 0.03 | 53 | 1015.9 |
| 20260507144110 | 13 | 359 | 3.2 | 3.2 | 0.00 | 0.00 | 0.03 | 60 | 1016.1 |
| 20260507143110 | 13 | 324 | 1.6 | 3.2 | 0.00 | 0.00 | 0.03 | 62 | 1016.1 |
| 20260507142109 | 15 | 327 | 1.6 | 1.6 | 0.00 | 0.00 | 0.03 | 62 | 1015.9 |
| 20260507141110 | 14 | 330 | 1.6 | 3.2 | 0.00 | 0.00 | 0.03 | 63 | 1015.8 |
| 20260507140110 | 13 | 315 | 0.0 | 1.6 | 0.00 | 0.00 | 0.03 | 61 | 1016.0 |
| 20260507135110 | 13 | 310 | 1.6 | 1.6 | 0.00 | 0.00 | 0.03 | 59 | 1016.1 |
| 20260507134111 | 15 | 291 | 1.6 | 3.2 | 0.00 | 0.00 | 0.03 | 62 | 1015.9 |
| 20260507133110 | 13 | 321 | 1.6 | 3.2 | 0.00 | 0.00 | 0.03 | 63 | 1015.8 |
| 20260507132109 | 13 | 326 | 1.6 | 3.2 | 0.00 | 0.00 | 0.03 | 66 | 1016.1 |
| 20260507131109 | 13 | 320 | 1.6 | 3.2 | 0.00 | 0.00 | 0.03 | 68 | 1016.3 |
| 20260507130111 | 13 | 19 | 1.6 | 3.2 | 0.00 | 0.00 | 0.03 | 68 | 1016.5 |
| 20260507125110 | 12 | 312 | 3.2 | 3.2 | 0.00 | 0.00 | 0.03 | 70 | 1016.3 |
| 20260507124110 | 12 | 328 | 3.2 | 3.2 | 0.00 | 0.00 | 0.03 | 73 | 1016.5 |
| 20260507123108 | 12 | 277 | 6.4 | 6.4 | 0.00 | 0.00 | 0.03 | 72 | 1016.5 |
| 20260507122110 | 12 | 317 | 0.0 | 1.6 | 0.00 | 0.00 | 0.03 | 77 | 1016.4 |
| 20260507121110 | 11 | 321 | 1.6 | 1.6 | 0.00 | 0.00 | 0.03 | 77 | 1016.5 |
| 20260507120110 | 11 | 283 | 3.2 | 4.8 | 0.00 | 0.00 | 0.03 | 79 | 1016.5 |
| 20260507115110 | 10 | 333 | 0.0 | 0.0 | 0.00 | 0.00 | 0.03 | 80 | 1016.4 |
| 20260507114110 | 10 | 331 | 0.0 | 0.0 | 0.00 | 0.00 | 0.03 | 82 | 1016.4 |
| 20260507113110 | 10 | 324 | 0.0 | 0.0 | 0.00 | 0.00 | 0.03 | 85 | 1016.4 |
| 20260507112110 | 9 | 322 | 0.0 | 0.0 | 0.00 | 0.00 | 0.03 | 89 | 1016.5 |
| 20260507111110 | 8 | 318 | 0.0 | 0.0 | 0.00 | 0.00 | 0.03 | 89 | 1016.1 |
| 20260507110110 | 8 | 329 | 0.0 | 0.0 | 0.00 | 0.00 | 0.03 | 93 | 1016.2 |
| 20260507105109 | 8 | 311 | 0.0 | 0.0 | 0.00 | 0.00 | 0.03 | 93 | 1016.0 |
| 20260507104112 | 8 | 319 | 0.0 | 0.0 | 0.00 | 0.00 | 0.03 | 93 | 1016.0 |
| 20260507103109 | 8 | 323 | 0.0 | 0.0 | 0.00 | 0.00 | 0.03 | 91 | 1015.6 |
| 20260507102109 | 8 | 326 | 0.0 | 0.0 | 0.00 | 0.00 | 0.03 | 91 | 1015.2 |
| 20260507101109 | 8 | 311 | 0.0 | 1.6 | 0.00 | 0.00 | 0.03 | 91 | 1015.5 |
| 20260507100107 | 8 | 317 | 0.0 | 1.6 | 0.00 | 0.00 | 0.03 | 91 | 1015.5 |
| 20260507095109 | 8 | 323 | 1.6 | 1.6 | 0.00 | 0.00 | 0.03 | 91 | 1015.4 |
| 20260507094110 | 8 | 323 | 0.0 | 0.0 | 0.00 | 0.00 | 0.03 | 90 | 1015.5 |
| 20260507093109 | 8 | 310 | 3.2 | 3.2 | 0.00 | 0.00 | 0.03 | 90 | 1015.6 |
| 20260507092109 | 8 | 320 | 1.6 | 1.6 | 0.00 | 0.00 | 0.03 | 91 | 1016.0 |
| 20260507091109 | 8 | 320 | 0.0 | 1.6 | 0.00 | 0.00 | 0.03 | 91 | 1015.9 |
| 20260507090107 | 8 | 314 | 0.0 | 1.6 | 0.00 | 0.00 | 0.03 | 93 | 1016.0 |
| 20260507085110 | 8 | 318 | 0.0 | 0.0 | 0.00 | 0.00 | 0.03 | 93 | 1016.0 |
| 20260507084110 | 8 | 308 | 0.0 | 1.6 | 0.00 | 0.00 | 0.03 | 91 | 1015.3 |
| 20260507083112 | 8 | 323 | 0.0 | 1.6 | 0.00 | 0.00 | 0.03 | 92 | 1015.9 |
| 20260507082110 | 8 | 319 | 1.6 | 1.6 | 0.00 | 0.00 | 0.03 | 92 | 1015.4 |
| 20260507081118 | 9 | 314 | 1.6 | 1.6 | 0.00 | 0.00 | 0.03 | 95 | 1015.7 |
| 20260507080110 | 9 | 306 | 1.6 | 1.6 | 0.00 | 0.00 | 0.03 | 95 | 1015.5 |
| 20260507075108 | 10 | 321 | 0.0 | 0.0 | 0.00 | 0.00 | 0.03 | 95 | 1015.2 |
| 20260507074109 | 10 | 318 | 0.0 | 0.0 | 0.18 | 0.00 | 0.03 | 92 | 1015.6 |
| 20260507073109 | 10 | 310 | 1.6 | 1.6 | 0.00 | 0.00 | 0.00 | 92 | 1015.8 |
| 20260507072110 | 10 | 320 | 0.0 | 0.0 | 0.00 | 0.00 | 0.00 | 91 | 1015.3 |
| 20260507071110 | 10 | 321 | 1.6 | 1.6 | 0.00 | 0.00 | 0.00 | 92 | 1014.8 |
| 20260507070110 | 10 | 319 | 0.0 | 1.6 | 0.00 | 0.00 | 0.00 | 94 | 1014.7 |
| 20260507065110 | 10 | 314 | 1.6 | 1.6 | 0.00 | 0.00 | 0.00 | 95 | 1014.6 |
| 20260507064109 | 11 | 322 | 0.0 | 0.0 | 0.00 | 0.00 | 0.00 | 96 | 1014.7 |
| 20260507063109 | 10 | 311 | 1.6 | 1.6 | 0.00 | 0.00 | 0.00 | 96 | 1014.9 |
| 20260507062110 | 11 | 321 | 0.0 | 0.0 | 0.00 | 0.00 | 0.00 | 97 | 1014.9 |
| 20260507061109 | 11 | 323 | 0.0 | 0.0 | 0.00 | 0.00 | 0.00 | 97 | 1014.9 |
| 20260507060111 | 11 | 322 | 0.0 | 0.0 | 0.00 | 0.00 | 0.00 | 98 | 1015.0 |
| 20260507055110 | 11 | 324 | 0.0 | 0.0 | 0.00 | 0.00 | 0.00 | 98 | 1014.7 |
| 20260507054109 | 11 | 316 | 0.0 | 0.0 | 0.00 | 0.00 | 0.00 | 98 | 1015.1 |
| 20260507053110 | 11 | 326 | 1.6 | 1.6 | 0.00 | 0.00 | 0.00 | 98 | 1015.4 |
| 20260507052110 | 11 | 315 | 1.6 | 1.6 | 0.00 | 0.00 | 0.00 | 98 | 1015.1 |
| 20260507051109 | 12 | 321 | 0.0 | 1.6 | 0.00 | 0.00 | 0.00 | 98 | 1015.3 |
| 20260507050110 | 12 | 310 | 1.6 | 3.2 | 0.00 | 0.00 | 0.00 | 98 | 1015.4 |
| 20260507045110 | 12 | 325 | 0.0 | 1.6 | 0.00 | 0.00 | 0.00 | 98 | 1015.1 |
| 20260507044107 | 12 | 327 | 1.6 | 1.6 | 0.00 | 0.00 | 0.00 | 98 | 1015.1 |
| 20260507043109 | 12 | 318 | 1.6 | 1.6 | 0.00 | 0.00 | 0.00 | 98 | 1015.0 |
| 20260507042109 | 12 | 322 | 0.0 | 0.0 | 0.00 | 0.00 | 0.00 | 97 | 1014.9 |
| 20260507041109 | 13 | 310 | 3.2 | 3.2 | 0.00 | 0.00 | 0.00 | 97 | 1015.0 |
| 20260507040109 | 13 | 321 | 0.0 | 1.6 | 0.00 | 0.00 | 0.53 | 98 | 1015.1 |
| 20260507035110 | 13 | 313 | 1.6 | 1.6 | 0.13 | 0.00 | 0.53 | 97 | 1015.0 |
| 20260507034109 | 13 | 319 | 1.6 | 1.6 | 0.00 | 0.00 | 0.51 | 97 | 1015.0 |
| 20260507033112 | 13 | 0 | 0.0 | 0.0 | 0.00 | 0.00 | 0.51 | 98 | 1014.5 |
| 20260507032111 | 14 | 317 | 0.0 | 0.0 | 0.00 | 0.00 | 0.51 | 99 | 1014.4 |
| 20260507031110 | 14 | 332 | 3.2 | 3.2 | 0.00 | 0.00 | 0.51 | 99 | 1014.1 |
| 20260507030110 | 15 | 321 | 1.6 | 1.6 | 0.00 | 0.00 | 0.51 | 99 | 1013.9 |
| 20260507025109 | 15 | 326 | 0.0 | 0.0 | 0.00 | 0.00 | 0.51 | 99 | 1014.1 |
| 20260507024109 | 15 | 316 | 0.0 | 0.0 | 0.18 | 0.00 | 0.51 | 99 | 1014.0 |
| 20260507023110 | 15 | 345 | 0.0 | 1.6 | 0.00 | 0.00 | 0.48 | 99 | 1014.4 |
| 20260507022109 | 15 | 320 | 0.0 | 1.6 | 0.00 | 0.00 | 0.48 | 99 | 1014.0 |
| 20260507021109 | 15 | 323 | 0.0 | 0.0 | 0.00 | 0.00 | 0.48 | 99 | 1013.7 |
| 20260507020110 | 15 | 326 | 0.0 | 0.0 | 0.00 | 0.00 | 0.48 | 99 | 1013.6 |
| 20260507015110 | 15 | 321 | 0.0 | 0.0 | 0.00 | 0.00 | 0.48 | 99 | 1013.8 |
| 20260507014110 | 15 | 326 | 0.0 | 0.0 | 0.00 | 0.00 | 0.48 | 99 | 1013.9 |
| 20260507013110 | 15 | 331 | 0.0 | 0.0 | 0.00 | 0.00 | 0.48 | 99 | 1013.9 |
| 20260507012109 | 15 | 330 | 0.0 | 0.0 | 0.00 | 0.00 | 0.48 | 99 | 1013.8 |
| 20260507011110 | 15 | 322 | 0.0 | 0.0 | 0.00 | 0.00 | 0.48 | 99 | 1013.7 |
| 20260507010110 | 15 | 325 | 0.0 | 0.0 | 0.00 | 0.00 | 0.48 | 99 | 1014.1 |
| 20260507005110 | 15 | 322 | 0.0 | 0.0 | 0.00 | 0.00 | 0.48 | 99 | 1013.9 |
| 20260507004110 | 15 | 323 | 0.0 | 0.0 | 0.00 | 0.00 | 0.48 | 99 | 1013.8 |
| 20260507003110 | 15 | 350 | 0.0 | 1.6 | 0.00 | 0.00 | 0.48 | 99 | 1013.7 |
| 20260507002110 | 15 | 318 | 0.0 | 1.6 | 0.00 | 0.00 | 0.48 | 99 | 1013.7 |
| 20260507001111 | 15 | 299 | 1.6 | 1.6 | 0.00 | 0.00 | 0.48 | 99 | 1013.6 |
| 20260507000109 | 15 | 328 | 0.0 | 0.0 | 0.00 | 0.00 | 0.48 | 99 | 1013.7 |
| 20260506235111 | 15 | 323 | 0.0 | 0.0 | 0.00 | 0.00 | 0.48 | 99 | 1013.6 |
| 20260506234110 | 15 | 324 | 0.0 | 0.0 | 0.00 | 0.00 | 0.48 | 99 | 1013.7 |
| 20260506233110 | 15 | 347 | 1.6 | 1.6 | 0.00 | 0.00 | 0.48 | 99 | 1013.4 |
| 20260506232108 | 15 | 325 | 0.0 | 0.0 | 0.00 | 0.00 | 0.48 | 99 | 1013.4 |
| 20260506231110 | 15 | 322 | 0.0 | 0.0 | 0.13 | 0.00 | 0.48 | 99 | 1013.3 |
| 20260506230111 | 15 | 314 | 0.0 | 0.0 | 0.48 | 0.00 | 0.46 | 99 | 1013.6 |
| 20260506225110 | 15 | 310 | 0.0 | 0.0 | 0.00 | 0.00 | 0.38 | 99 | 1013.5 |
| 20260506224110 | 15 | 328 | 0.0 | 0.0 | 0.13 | 0.00 | 0.38 | 99 | 1013.6 |
| 20260506223109 | 15 | 323 | 0.0 | 0.0 | 0.18 | 0.00 | 0.00 | 98 | 1013.6 |
| 20260506222109 | 15 | 325 | 0.0 | 0.0 | 0.18 | 0.00 | 0.33 | 98 | 1013.8 |
| 20260506221109 | 15 | 328 | 1.6 | 1.6 | 0.30 | 0.00 | 0.30 | 98 | 1014.1 |
| 20260506220110 | 15 | 316 | 0.0 | 0.0 | 0.30 | 0.00 | 0.25 | 97 | 1013.8 |
| 20260506215110 | 15 | 322 | 0.0 | 0.0 | 0.13 | 0.00 | 0.20 | 96 | 1013.9 |
| 20260506214111 | 15 | 303 | 3.2 | 3.2 | 0.00 | 0.00 | 0.00 | 96 | 1014.0 |
| 20260506213110 | 15 | 341 | 0.0 | 0.0 | 0.00 | 0.00 | 0.00 | 96 | 1014.1 |
| 20260506212110 | 15 | 313 | 0.0 | 0.0 | 0.00 | 0.00 | 0.00 | 96 | 1014.3 |
| 20260506211111 | 15 | 333 | 1.6 | 1.6 | 0.00 | 0.00 | 0.00 | 96 | 1014.3 |
| 20260506210110 | 15 | 326 | 0.0 | 0.0 | 0.00 | 0.00 | 0.00 | 96 | 1014.2 |
| 20260506205116 | 15 | 308 | 0.0 | 1.6 | 0.18 | 0.00 | 0.00 | 96 | 1014.6 |
| 20260506204109 | 15 | 317 | 0.0 | 0.0 | 0.18 | 0.00 | 0.00 | 96 | 1014.5 |
| 20260506203110 | 16 | 325 | 1.6 | 1.6 | 0.00 | 0.00 | 0.15 | 95 | 1014.6 |
| 20260506202109 | 16 | 323 | 0.0 | 0.0 | 0.13 | 0.00 | 0.15 | 95 | 1014.4 |
| 20260506201109 | 16 | 330 | 0.0 | 0.0 | 0.18 | 0.00 | 0.13 | 94 | 1014.6 |
| 20260506200110 | 16 | 319 | 0.0 | 0.0 | 0.00 | 0.00 | 0.10 | 93 | 1014.6 |
| 20260506195109 | 16 | 333 | 0.0 | 1.6 | 0.00 | 0.00 | 0.10 | 92 | 1014.8 |
| 20260506194111 | 17 | 325 | 0.0 | 0.0 | 0.13 | 0.00 | 0.10 | 93 | 1014.9 |
| 20260506193109 | 17 | 331 | 0.0 | 0.0 | 0.00 | 0.00 | 0.08 | 93 | 1014.7 |